Location: Drignac
(45.1667°N, 2.0333°E)
Time: 21:23:33
(UTC+00:00)

Meteor 2-16 Rocket - Pass Details

Date: 29 March 2020
Orbit: 941 x 957 km, 82.6° (Epoch: 26 May)

Event Time Altitude Azimuth Distance (km) Brightness Sun altitude
Rises 18:47:00 0° 351° (N) 3,645 7.8 -6.2°
Reaches altitude 10° 18:49:31 10° 353° (N) 2,696 7.1 -6.6°
Maximum altitude 18:55:42 81° 80° (E) 975 4.5 -7.7°
Drops below altitude 10° 19:01:52 10° 169° (S) 2,679 6.6 -8.7°
Sets 19:04:21 0° 170° (S) 3,620 7.2 -9.1°
